Weather History for Sacramento / Mc Clellan, CA

Change the Weather History Date:

Wednesday, April 3, 2013

  Actual Average (KMHR) Record (KMHR)
Temperature  
Mean Temperature 62 °F -  
Max Temperature 73 °F 65 °F 77 °F (1997)
Min Temperature 50 °F 41 °F 33 °F (2003)
Degree Days  
Heating Degree Days 4    
Growing Degree Days 12 (Base 50)    
Moisture  
Dew Point 51 °F    
Average Humidity 71    
Maximum Humidity 94    
Minimum Humidity 44    
Precipitation  
Precipitation 0.00 in - - ()
Sea Level Pressure  
Sea Level Pressure 30.07 in    
Wind  
Wind Speed 4 mph (ESE)    
Max Wind Speed 7 mph    
Max Gust Speed -    
Visibility 10 miles    
Events      
Averages and records for this station are not official NWS values.
T = Trace of Precipitation, MM = Missing Value Source: NWS Daily Summary

Daily Weather History Graph

Daily Weather History Graph

Search for Another Location

Airport:

Trip Planner

Search our weather history database for the weather conditions in past years. The results will help you decide how hot, cold, wet, or windy it might be!

Date:

Astronomy

Apr. 03, 2013 Rise Set
Actual Time 6:46 AM PDT 7:31 PM PDT
Civil Twilight 6:19 AM PDT 7:58 PM PDT
Nautical Twilight 5:48 AM PDT 8:30 PM PDT
Astronomical Twilight 5:15 AM PDT 9:02 PM PDT
Moon 2:27 AM PDT (4/3) 12:53 PM PDT (4/3)
Length of Visible Light 13h 38m
Length of Day
12h 44m
Last Quarter, 43% of the Moon is Illuminated
Apr 3
Last Quarter
Apr 10
New
Apr 18
First Quarter
Apr 25
Full
May 2
Last Quarter

Hourly Weather History & Observations

Time (PDT) Temp. Dew Point Humidity Pressure Visibility Wind Dir Wind Speed Gust Speed Precip Events Conditions
12:05 AM 57.2 °F 50.0 °F 77% 30.12 in 10.0 mi ESE 5.8 mph - N/A   Clear
12:25 AM 55.4 °F 50.0 °F 82% 30.12 in 10.0 mi SE 6.9 mph - N/A   Clear
12:45 AM 55.4 °F 50.0 °F 82% 30.12 in 10.0 mi SE 5.8 mph - N/A   Clear
1:05 AM 53.6 °F 50.0 °F 88% 30.12 in 10.0 mi SSE 5.8 mph - N/A   Clear
1:25 AM 53.6 °F 48.2 °F 82% 30.13 in 10.0 mi SSE 5.8 mph - N/A   Clear
1:45 AM 53.6 °F 48.2 °F 82% 30.12 in 10.0 mi SE 5.8 mph - N/A   Clear
2:05 AM 53.6 °F 50.0 °F 88% 30.12 in 10.0 mi SSE 4.6 mph - N/A   Clear
2:25 AM 53.6 °F 50.0 °F 88% 30.12 in 10.0 mi SE 5.8 mph - N/A   Clear
2:45 AM 53.6 °F 50.0 °F 88% 30.12 in 10.0 mi SE 6.9 mph - N/A   Clear
3:05 AM 53.6 °F 50.0 °F 88% 30.12 in 10.0 mi SE 5.8 mph - N/A   Clear
3:25 AM 53.6 °F 50.0 °F 88% 30.11 in 10.0 mi ESE 6.9 mph - N/A   Clear
3:45 AM 53.6 °F 48.2 °F 82% 30.10 in 10.0 mi ESE 6.9 mph - N/A   Clear
4:05 AM 51.8 °F 48.2 °F 88% 30.11 in 10.0 mi SE 5.8 mph - N/A   Clear
4:25 AM 50.0 °F 48.2 °F 94% 30.11 in 10.0 mi South 4.6 mph - N/A   Clear
4:45 AM 50.0 °F 48.2 °F 94% 30.11 in 10.0 mi Calm Calm - N/A   Clear
5:05 AM 50.0 °F 48.2 °F 94% 30.11 in 10.0 mi SSW 4.6 mph - N/A   Clear
5:25 AM 50.0 °F 48.2 °F 94% 30.12 in 10.0 mi Calm Calm - N/A   Clear
5:45 AM 50.0 °F 48.2 °F 94% 30.12 in 10.0 mi SSE 3.5 mph - N/A   Clear
6:05 AM 50.0 °F 46.4 °F 87% 30.11 in 10.0 mi SE 3.5 mph - N/A   Clear
6:25 AM 50.0 °F 48.2 °F 94% 30.11 in 10.0 mi East 4.6 mph - N/A   Clear
6:45 AM 50.0 °F 48.2 °F 94% 30.12 in 10.0 mi SE 3.5 mph - N/A   Clear
7:05 AM 51.8 °F 48.2 °F 88% 30.12 in 10.0 mi East 3.5 mph - N/A   Clear
7:25 AM 50.0 °F 48.2 °F 94% 30.12 in 10.0 mi ESE 3.5 mph - N/A   Clear
7:45 AM 51.8 °F 48.2 °F 88% 30.14 in 10.0 mi South 3.5 mph - N/A   Clear
8:05 AM 51.8 °F 48.2 °F 88% 30.15 in 10.0 mi SSE 3.5 mph - N/A   Clear
8:25 AM 53.6 °F 48.2 °F 82% 30.15 in 10.0 mi Calm Calm - N/A   Clear
8:45 AM 53.6 °F 48.2 °F 82% 30.14 in 9.0 mi Calm Calm - N/A   Clear
9:05 AM 55.4 °F 50.0 °F 82% 30.15 in 9.0 mi Calm Calm - N/A   Clear
9:25 AM 57.2 °F 50.0 °F 77% 30.15 in 9.0 mi Calm Calm - N/A   Clear
9:45 AM 57.2 °F 50.0 °F 77% 30.14 in 9.0 mi Calm Calm - N/A   Clear
10:05 AM 59.0 °F 50.0 °F 72% 30.14 in 10.0 mi NNE 3.5 mph - N/A   Clear
10:25 AM 62.6 °F 50.0 °F 63% 30.14 in 10.0 mi Calm Calm - N/A   Clear
10:45 AM 62.6 °F 50.0 °F 63% 30.15 in 10.0 mi Calm Calm - N/A   Clear
11:05 AM 64.4 °F 50.0 °F 59% 30.14 in 10.0 mi Calm Calm - N/A   Clear
11:25 AM 64.4 °F 50.0 °F 59% 30.14 in 10.0 mi Calm Calm - N/A   Clear
11:45 AM 66.2 °F 50.0 °F 56% 30.13 in 10.0 mi Calm Calm - N/A   Clear
12:05 PM 66.2 °F 51.8 °F 60% 30.12 in 9.0 mi Calm Calm - N/A   Clear
12:25 PM 68.0 °F 51.8 °F 56% 30.12 in 10.0 mi Calm Calm - N/A   Clear
12:45 PM 68.0 °F 51.8 °F 56% 30.11 in 10.0 mi Calm Calm - N/A   Clear
1:05 PM 68.0 °F 53.6 °F 60% 30.10 in 10.0 mi WNW 5.8 mph - N/A   Clear
1:25 PM 69.8 °F 53.6 °F 56% 30.09 in 10.0 mi NNW 3.5 mph - N/A   Clear
1:45 PM 71.6 °F 53.6 °F 53% 30.08 in 10.0 mi NNW 3.5 mph - N/A   Clear
2:05 PM 69.8 °F 51.8 °F 53% 30.07 in 10.0 mi Calm Calm - N/A   Clear
2:25 PM 71.6 °F 53.6 °F 53% 30.06 in 10.0 mi NW 3.5 mph - N/A   Clear
2:45 PM 71.6 °F 50.0 °F 46% 30.05 in 10.0 mi WNW 3.5 mph - N/A   Clear
3:05 PM 71.6 °F 51.8 °F 50% 30.04 in 10.0 mi NNW 4.6 mph - N/A   Clear
3:25 PM 71.6 °F 53.6 °F 53% 30.03 in 10.0 mi NW 3.5 mph - N/A   Clear
3:45 PM 71.6 °F 53.6 °F 53% 30.03 in 10.0 mi WNW 3.5 mph - N/A   Clear
4:05 PM 73.4 °F 53.6 °F 50% 30.02 in 10.0 mi NNW 4.6 mph - N/A   Clear
4:25 PM 73.4 °F 51.8 °F 47% 30.01 in 10.0 mi West 3.5 mph - N/A   Clear
4:45 PM 73.4 °F 51.8 °F 47% 30.01 in 10.0 mi Calm Calm - N/A   Clear
5:05 PM 73.4 °F 51.8 °F 47% 30.00 in 10.0 mi North 3.5 mph - N/A   Clear
5:25 PM 73.4 °F 50.0 °F 44% 29.99 in 10.0 mi Calm Calm - N/A   Clear
5:45 PM 73.4 °F 51.8 °F 47% 29.99 in 10.0 mi North 4.6 mph - N/A   Clear
6:05 PM - - N/A% 29.98 in 10.0 mi North 4.6 mph - N/A   Clear
6:25 PM 71.6 °F 55.4 °F 57% 29.98 in 10.0 mi NNW 5.8 mph - N/A   Clear
6:45 PM 71.6 °F 55.4 °F 57% 29.98 in 10.0 mi NNW 4.6 mph - N/A   Clear
7:05 PM 69.8 °F 55.4 °F 60% 29.98 in 10.0 mi NNW 3.5 mph - N/A   Clear
7:25 PM 68.0 °F 55.4 °F 64% 29.98 in 10.0 mi North 4.6 mph - N/A   Clear
7:45 PM 68.0 °F 53.6 °F 60% 29.98 in 10.0 mi Calm Calm - N/A   Clear
8:05 PM 66.2 °F 53.6 °F 64% 29.99 in 10.0 mi WNW 3.5 mph - N/A   Clear
8:25 PM 66.2 °F 53.6 °F 64% 29.98 in 10.0 mi Calm Calm - N/A   Clear
8:45 PM 66.2 °F 53.6 °F 64% 29.98 in 10.0 mi ENE 3.5 mph - N/A   Clear
9:05 PM 66.2 °F 53.6 °F 64% 29.99 in 10.0 mi Calm Calm - N/A   Clear
9:25 PM 64.4 °F 53.6 °F 68% 29.98 in 10.0 mi ESE 3.5 mph - N/A   Clear
9:45 PM 62.6 °F 53.6 °F 72% 29.99 in 10.0 mi Calm Calm - N/A   Clear
10:05 PM 62.6 °F 53.6 °F 72% 29.99 in 10.0 mi Calm Calm - N/A   Clear
10:25 PM 64.4 °F 53.6 °F 68% 29.99 in 10.0 mi Calm Calm - N/A   Clear
10:45 PM 62.6 °F 53.6 °F 72% 29.99 in 10.0 mi Calm Calm - N/A   Clear
11:05 PM 62.6 °F 53.6 °F 72% 29.99 in 10.0 mi Calm Calm - N/A   Clear
11:25 PM 60.8 °F 53.6 °F 77% 30.00 in 10.0 mi South 4.6 mph - N/A   Clear
11:45 PM 59.0 °F 51.8 °F 77% 29.99 in 10.0 mi SSE 5.8 mph - N/A   Clear